[[{"header":{"parameterUnit":"m.s-1","parameterCategory":1,"la1":30.2991,"la2":30.254,"lo1":-89.0895,"lo2":-89.0444,"dy":0.0017,"dx":0.0017,"nx":28,"ny":28,"refTime":"2025-06-11T21:00:00:Z","depth":0,"parameterNumber":2,"parameterNumberName":"U-component_of_WINDS"},"data":[0,0,0,0,0,0,0,0,0,0,0,0,0,0,0,0,0,0,0,0,0,0,0,0,0,0,0,0,0,0,0,0,0,0,0,0,0,0,0,0,0,0,0,0,0,0,0,0,0,0,0,0,0,0,0,0,0,0,-2.9125,-2.9125,0,-2.9093,-2.9093,-2.9093,-2.9057,-2.9056,-2.9055,-2.9055,-2.9022,-2.9022,-2.9021,0,0,0,0,0,0,0,0,0,0,0,0,0,-2.9154,-2.9154,-2.9125,-2.9125,-2.9124,-2.9093,-2.9093,-2.9093,-2.9057,-2.9056,-2.9055,-2.9055,-2.9022,-2.9022,-2.9021,0,0,0,0,0,0,0,0,0,0,0,0,0,-2.9134,-2.9153,-2.9125,-2.9103,-2.91,-2.9094,-2.9093,-2.9092,-2.9057,-2.9056,-2.9055,-2.9054,-2.9022,-2.9022,-2.9021,-2.9034,0,0,-2.9019,-2.9019,0,0,0,0,0,0,0,0,-2.9135,-2.9133,-2.9106,-2.9104,-2.9102,-2.9078,-2.9091,-2.9073,-2.9057,-2.9073,-2.9055,-2.9054,-2.9041,-2.9039,-2.9035,-2.9032,-2.9031,-2.9019,-2.9019,-2.9019,-2.9018,0,0,0,0,0,0,0,-2.9136,-2.9134,-2.9112,-2.9106,-2.9103,-2.9094,-2.909,-2.9087,-2.9062,-2.9072,-2.9069,-2.9066,-2.904,-2.9035,-2.9034,-2.903,-2.9019,-2.9019,-2.9018,-2.9018,-2.9035,-2.9035,0,0,0,0,0,0,-2.9141,-2.9135,-2.9114,-2.9112,-2.9117,-2.9094,-2.909,-2.9086,-2.9062,-2.9058,-2.9067,-2.9064,-2.9037,-2.9034,-2.9032,-2.9044,-2.9019,-2.9018,-2.9018,-2.9034,-2.9035,-2.9036,0,0,0,0,0,0,-2.9142,-2.914,-2.9115,-2.9123,-2.9119,-2.9094,-2.9091,-2.9086,-2.9082,-2.9058,-2.9053,-2.9067,-2.9036,-2.9033,-2.9033,-2.9042,-2.9018,-2.9017,-2.9033,-2.9034,-2.9035,-2.9068,0,0,0,0,0,0,-2.9143,-2.914,-2.9145,-2.9123,-2.9119,-2.9116,-2.9091,-2.9086,-2.9081,-2.9078,-2.9057,-2.9053,-2.9035,-2.9034,-2.9033,-2.9041,-2.9017,-2.9032,-2.9033,-2.9035,-2.9066,-2.9071,-2.9074,0,0,0,0,0,-2.9144,-2.9156,-2.9145,-2.9143,-2.9124,-2.9117,-2.9114,-2.9094,-2.9082,-2.9086,-2.9071,-2.9054,-2.9042,-2.9035,-2.9033,-2.9041,-2.9031,-2.9033,-2.9035,-2.9065,-2.907,-2.9074,0,0,0,0,0,0,-2.9179,-2.9152,-2.914,-2.9145,-2.9134,-2.9111,-2.9116,-2.91,-2.9092,-2.9089,-2.9064,-2.906,-2.9062,-2.9052,-2.9044,-2.9051,-2.9034,-2.9036,-2.9058,-2.9062,-2.9066,-2.9068,-2.9016,0,0,0,0,0,-2.9187,-2.9184,-2.9161,-2.9167,-2.9162,-2.914,-2.9136,-2.9122,-2.9109,-2.9103,-2.9088,-2.9076,-2.9069,-2.9066,-2.9059,-2.9065,-2.906,-2.907,-2.9074,-2.9078,-2.9078,-2.908,-2.9084,-2.9041,-2.9041,-2.9041,0,0,-2.9204,-2.9189,-2.9189,-2.9174,-2.9163,-2.916,-2.9136,-2.9134,-2.9131,-2.9103,-2.9102,-2.909,-2.9075,-2.9078,-2.9079,-2.9069,-2.9089,-2.908,-2.9083,-2.9082,-2.9082,-2.9086,-2.909,-2.9043,-2.9042,-2.9042,0,0,-2.9232,-2.9222,-2.9225,-2.9215,-2.9199,-2.9184,-2.9185,-2.9165,-2.9156,-2.9155,-2.9133,-2.913,-2.9119,-2.9109,-2.9102,-2.9127,-2.911,-2.9126,-2.9145,-2.9147,-2.915,-2.9153,-2.9161,-2.9164,-2.9127,-2.9127,-2.9127,0,-2.9255,-2.9249,-2.9229,-2.9228,-2.9221,-2.9196,-2.9199,-2.919,-2.9173,-2.9169,-2.9159,-2.9145,-2.9133,-2.9133,-2.9139,-2.9135,-2.9135,-2.9127,-2.9152,-2.9154,-2.9157,-2.9163,-2.9166,-2.9129,-2.9129,-2.9129,-2.9128,0,-2.9277,-2.9274,-2.9279,-2.9262,-2.9257,-2.9258,-2.9237,-2.9234,-2.922,-2.9206,-2.9205,-2.919,-2.9178,-2.9178,-2.9164,-2.9175,-2.917,-2.9157,-2.9138,-2.9163,-2.9168,-2.9171,-2.9132,-2.9131,-2.913,-2.913,0,0,-2.9325,-2.9298,-2.93,-2.9292,-2.9273,-2.9269,-2.9269,-2.9259,-2.9256,-2.9245,-2.9243,-2.9235,-2.9223,-2.9215,-2.9201,-2.9202,-2.9221,-2.9188,-2.9188,-2.9193,-2.9231,-2.9239,-2.9243,-2.9211,-2.9211,-2.9212,-2.9231,0,-2.9349,-2.9347,-2.9328,-2.9331,-2.9327,-2.9304,-2.9303,-2.9292,-2.9279,-2.9273,-2.9259,-2.9253,-2.9238,-2.9233,-2.9234,-2.9219,-2.9228,-2.9217,-2.9208,-2.9208,-2.921,-2.9246,-2.9255,-2.9275,-2.9233,-2.9234,-2.9234,0,-2.9376,-2.9367,-2.9369,-2.935,-2.9347,-2.9347,-2.9335,-2.9331,-2.9317,-2.9307,-2.9299,-2.9283,-2.928,-2.9265,-2.9261,-2.9254,-2.9249,-2.9241,-2.9242,-2.9238,-2.9221,-2.9242,-2.9281,-2.9283,-2.9238,-2.9238,-2.9237,0,-2.9408,-2.9397,-2.9396,-2.9391,-2.9368,-2.9369,-2.9359,-2.9344,-2.9339,-2.9329,-2.9325,-2.9315,-2.9309,-2.9301,-2.9282,-2.9273,-2.928,-2.9263,-2.927,-2.9271,-2.9271,-2.9271,-2.9308,-2.9272,-2.9272,-2.9272,-2.9272,0,-2.9436,-2.9438,-2.9411,-2.941,-2.9412,-2.9391,-2.9393,-2.9381,-2.9368,-2.9364,-2.9344,-2.9341,-2.9317,-2.9311,-2.9297,-2.9295,-2.9293,-2.9284,-2.928,-2.9285,-2.9286,-2.928,-2.9277,-2.9272,-2.9272,-2.9272,-2.9272,0,-2.9471,-2.9453,-2.9451,-2.943,-2.9425,-2.9427,-2.9409,-2.9407,-2.9394,-2.939,-2.9388,-2.9366,-2.9358,-2.9339,-2.9326,-2.9316,-2.9317,-2.9311,-2.9322,-2.9319,-2.9327,-2.9326,-2.936,-2.9363,-2.9327,-2.9327,-2.9327,0,-2.9489,-2.949,-2.9469,-2.9465,-2.9457,-2.9452,-2.9446,-2.9425,-2.942,-2.9404,-2.9404,-2.9395,-2.9386,-2.9374,-2.9357,-2.9347,-2.9339,-2.9352,-2.9337,-2.9342,-2.9337,-2.9336,-2.9336,-2.9354,-2.9355,-2.9355,-2.9355,0,-2.9521,-2.9512,-2.9505,-2.9495,-2.9489,-2.9479,-2.9469,-2.9467,-2.9444,-2.9439,-2.9431,-2.9424,-2.9411,-2.9401,-2.9388,-2.9378,-2.9362,-2.936,-2.9361,-2.9365,-2.9371,-2.9366,-2.9329,-2.9359,-2.9359,-2.9358,-2.9358,-2.9358,-2.9547,-2.9546,-2.9532,-2.9524,-2.9514,-2.9505,-2.9502,-2.9489,-2.9481,-2.9469,-2.9458,-2.945,-2.9436,-2.9417,-2.9408,-2.9401,-2.9393,-2.9395,-2.9395,-2.9395,-2.9397,-2.9374,-2.9399,-2.9399,-2.9399,-2.9399,-2.9399,0,-2.9577,-2.9566,-2.956,-2.9546,-2.954,-2.9527,-2.9514,-2.951,-2.9504,-2.9492,-2.9484,-2.9474,-2.9464,-2.9447,-2.9436,-2.9434,-2.9426,-2.9431,-2.943,-2.9428,-2.9406,-2.9405,-2.9438,-2.9438,-2.9438,-2.9438,-2.9438,-2.9438,-2.9591,-2.9589,-2.9579,-2.9572,-2.9561,-2.9554,-2.9548,-2.9539,-2.9529,-2.9519,-2.9511,-2.95,-2.9485,-2.9473,-2.9464,-2.9459,-2.9455,-2.9462,-2.9455,-2.9434,-2.943,-2.9426,-2.9425,-2.9462,-2.9462,-2.9477,-2.9477,-2.9478]},{"header":{"parameterUnit":"m.s-1","parameterCategory":1,"la1":30.2991,"la2":30.254,"lo1":-89.0895,"lo2":-89.0444,"dy":0.0017,"dx":0.0017,"nx":28,"ny":28,"refTime":"2025-06-11T21:00:00:Z","depth":0,"parameterNumber":3,"parameterNumberName":"V-component_of_WINDS"},"data":[0,0,0,0,0,0,0,0,0,0,0,0,0,0,0,0,0,0,0,0,0,0,0,0,0,0,0,0,0,0,0,0,0,0,0,0,0,0,0,0,0,0,0,0,0,0,0,0,0,0,0,0,0,0,0,0,0,0,3.6302,3.6302,0,3.6266,3.6265,3.6265,3.62,3.6199,3.6198,3.6197,3.616,3.616,3.616,0,0,0,0,0,0,0,0,0,0,0,0,0,3.6317,3.6317,3.6302,3.6302,3.6301,3.6266,3.6265,3.6265,3.6201,3.6199,3.6198,3.6196,3.616,3.616,3.616,0,0,0,0,0,0,0,0,0,0,0,0,0,3.6298,3.6317,3.6302,3.6265,3.6261,3.6266,3.6265,3.6265,3.6201,3.6199,3.6197,3.6196,3.616,3.616,3.616,3.6198,0,0,3.6161,3.6161,0,0,0,0,0,0,0,0,3.6299,3.6298,3.6271,3.6268,3.6263,3.6236,3.6257,3.6242,3.6201,3.6224,3.6197,3.6195,3.6187,3.6184,3.6182,3.6196,3.6195,3.6161,3.6161,3.6161,3.6161,0,0,0,0,0,0,0,3.6301,3.6299,3.6288,3.6271,3.6266,3.625,3.6246,3.6254,3.6216,3.6222,3.6217,3.6214,3.6184,3.6182,3.618,3.6194,3.6161,3.6161,3.6161,3.6161,3.6238,3.624,0,0,0,0,0,0,3.6307,3.6301,3.6289,3.6287,3.6277,3.6251,3.6246,3.6246,3.6216,3.6209,3.6215,3.6211,3.6182,3.618,3.6179,3.6221,3.6161,3.6161,3.6161,3.6236,3.6238,3.624,0,0,0,0,0,0,3.6308,3.6307,3.629,3.6292,3.6289,3.6253,3.6254,3.6247,3.6244,3.6211,3.6204,3.622,3.6181,3.6178,3.6194,3.6219,3.6161,3.6162,3.6234,3.6237,3.6239,3.6306,0,0,0,0,0,0,3.6309,3.6308,3.6322,3.6293,3.6289,3.6306,3.6255,3.6247,3.6245,3.6238,3.6213,3.6207,3.6179,3.6194,3.6194,3.6218,3.6162,3.6231,3.6235,3.6238,3.6302,3.6311,3.6319,0,0,0,0,0,3.6309,3.6342,3.6323,3.6322,3.6306,3.6308,3.6305,3.6273,3.6247,3.6261,3.6239,3.6208,3.6216,3.6196,3.6196,3.622,3.623,3.6234,3.6238,3.6298,3.6309,3.6319,0,0,0,0,0,0,3.6375,3.6338,3.6316,3.634,3.6328,3.6297,3.6313,3.6286,3.628,3.6275,3.6234,3.6229,3.625,3.6236,3.6214,3.6255,3.6218,3.6222,3.6263,3.6274,3.6283,3.6286,3.6162,0,0,0,0,0,3.6392,3.6397,3.6364,3.6389,3.6383,3.635,3.6349,3.6325,3.631,3.6305,3.6284,3.6271,3.6271,3.6272,3.6269,3.6299,3.6293,3.6316,3.6325,3.6332,3.6337,3.6351,3.6361,3.6254,3.6254,3.6254,0,0,3.6428,3.6408,3.6414,3.6401,3.6389,3.6394,3.6346,3.6354,3.6357,3.6306,3.6319,3.6304,3.6286,3.6309,3.6318,3.6299,3.6364,3.6338,3.6344,3.6344,3.6357,3.6367,3.6376,3.6257,3.6257,3.6256,0,0,3.6496,3.6482,3.6501,3.6489,3.647,3.6447,3.6452,3.6425,3.6413,3.6426,3.6387,3.6391,3.6391,3.638,3.6375,3.6439,3.641,3.6439,3.6485,3.65,3.6508,3.6515,3.6538,3.6547,3.6444,3.6444,3.6444,0,3.6543,3.655,3.6514,3.6524,3.652,3.6473,3.6492,3.6483,3.6465,3.6463,3.6441,3.644,3.6425,3.6445,3.646,3.6457,3.6461,3.6442,3.651,3.6517,3.6523,3.6544,3.6553,3.6448,3.6447,3.6447,3.6446,0,3.6609,3.6614,3.6632,3.6615,3.6613,3.6628,3.6594,3.6595,3.6571,3.6551,3.6564,3.6545,3.6538,3.654,3.6517,3.6556,3.6545,3.6517,3.6479,3.6538,3.6557,3.6565,3.6453,3.6452,3.645,3.6449,0,0,3.6718,3.6681,3.6688,3.668,3.6656,3.6659,3.6671,3.6664,3.6667,3.6656,3.6665,3.6666,3.664,3.6634,3.6609,3.6622,3.6674,3.6592,3.6591,3.6608,3.6716,3.6738,3.6748,3.6654,3.6655,3.6656,3.6718,0,3.6781,3.6801,3.6768,3.6795,3.68,3.6755,3.6766,3.6752,3.6733,3.6734,3.6713,3.6715,3.668,3.6676,3.6687,3.6665,3.6695,3.666,3.6662,3.6663,3.6669,3.6758,3.678,3.6839,3.6725,3.6726,3.6727,0,3.6858,3.6851,3.6878,3.6852,3.6853,3.6863,3.6854,3.6855,3.6839,3.6824,3.6817,3.6787,3.6797,3.676,3.6773,3.6751,3.6749,3.6739,3.674,3.674,3.6699,3.676,3.6857,3.6866,3.6739,3.6738,3.6737,0,3.6936,3.6932,3.6948,3.6942,3.6912,3.6921,3.6908,3.689,3.6888,3.6879,3.6878,3.6871,3.6867,3.6863,3.6832,3.6807,3.6849,3.6809,3.6837,3.6838,3.6848,3.6848,3.6947,3.6847,3.6847,3.6847,3.6846,0,3.701,3.7029,3.6982,3.6992,3.7012,3.6974,3.6994,3.6977,3.6961,3.6967,3.6928,3.6934,3.6892,3.6894,3.687,3.6884,3.6883,3.6871,3.6865,3.6875,3.6877,3.6874,3.687,3.6849,3.6848,3.6848,3.6848,0,3.71,3.707,3.7084,3.7054,3.7047,3.7063,3.7037,3.7045,3.7023,3.7031,3.7031,3.6997,3.6996,3.6965,3.6958,3.6941,3.6967,3.6952,3.6973,3.6968,3.6998,3.6996,3.7099,3.7111,3.7003,3.7004,3.7005,0,3.715,3.7164,3.7135,3.7136,3.7126,3.7128,3.7125,3.7088,3.7087,3.7069,3.7079,3.7075,3.7071,3.7072,3.7047,3.7041,3.7027,3.7063,3.7026,3.7036,3.7028,3.7027,3.7028,3.7072,3.7073,3.7074,3.7075,0,3.7242,3.7227,3.7224,3.7217,3.7215,3.7207,3.7197,3.72,3.7159,3.716,3.7159,3.7156,3.7148,3.7145,3.7135,3.7122,3.7092,3.7087,3.7093,3.7104,3.7115,3.711,3.6995,3.7085,3.7084,3.7083,3.7083,3.7082,3.7314,3.7324,3.7305,3.7304,3.7292,3.7283,3.7289,3.7268,3.7266,3.7258,3.7236,3.7239,3.7221,3.7204,3.7194,3.7195,3.7177,3.7186,3.7188,3.7191,3.7197,3.7115,3.7193,3.7193,3.7192,3.7192,3.7192,0,3.7404,3.739,3.7389,3.7376,3.7375,3.7346,3.7333,3.7334,3.7337,3.7323,3.7319,3.7318,3.7314,3.7289,3.7282,3.7288,3.7274,3.7288,3.7287,3.7285,3.7213,3.7209,3.7299,3.7299,3.7299,3.7299,3.7299,3.7299,3.7451,3.7466,3.7448,3.7456,3.7441,3.7444,3.7439,3.743,3.7419,3.742,3.7417,3.74,3.7381,3.7372,3.7368,3.736,3.736,3.7378,3.7366,3.73,3.729,3.728,3.7275,3.7378,3.7379,3.7437,3.7438,3.7438]}]]